• In Belgium
  • List of Countries
  • For 7 days
  • Water Temperature
  • Satellite Maps
  • Weather Map
  • Weather Widgets
  • user-avatar
    Login

    Hourly Weather Rixensart

    Today, 16 July, Monday

    Time Temperature Precipitation Wind Pressure Humidity
    00:00 +19°C° 0 mm 2 mps 752 mmHg 54%
    01:00 +19°C° 0 mm 2 mps 752 mmHg 55%
    02:00 +18°C° 0 mm 2 mps 751 mmHg 56%
    03:00 +19°C° 0 mm 1 mps 751 mmHg 57%
    04:00 +20°C° 0 mm 1 mps 751 mmHg 58%
    05:00 +21°C° 0 mm 1 mps 751 mmHg 59%
    06:00 +22°C° 0 mm 1 mps 751 mmHg 57%
    07:00 +24°C° 0 mm 1 mps 751 mmHg 52%
    08:00 +26°C° 0 mm 1 mps 751 mmHg 47%
    09:00 +28°C° 0 mm 1 mps 751 mmHg 41%
    10:00 +28°C° 0 mm 1 mps 751 mmHg 42%
    11:00 +29°C° 0 mm 1 mps 751 mmHg 40%
    12:00 +29°C° 0 mm 2 mps 751 mmHg 38%
    13:00 +29°C° 0 mm 2 mps 751 mmHg 38%
    14:00 +29°C° 0 mm 2 mps 751 mmHg 38%
    15:00 +29°C° 0 mm 2 mps 750 mmHg 38%
    16:00 +29°C° 0 mm 2 mps 750 mmHg 41%
    17:00 +28°C° 0 mm 1 mps 750 mmHg 45%
    18:00 +28°C° 0 mm 1 mps 750 mmHg 48%
    19:00 +26°C° 0.2 mm 1 mps 751 mmHg 52%
    20:00 +24°C° 0.2 mm 1 mps 751 mmHg 57%
    21:00 +21°C° 0.2 mm 2 mps 751 mmHg 61%
    22:00 +20°C° 0.1 mm 2 mps 751 mmHg 65%
    23:00 +19°C° 0.1 mm 2 mps 751 mmHg 69%

    Tomorrow, 17 July, Tuesday

    Time Temperature Precipitation Wind Pressure Humidity
    00:00 +18°C° 0.1 mm 2 mps 752 mmHg 73%
    01:00 +18°C° 0 mm 2 mps 752 mmHg 75%
    02:00 +17°C° 0 mm 2 mps 751 mmHg 77%
    03:00 +16°C° 0 mm 2 mps 751 mmHg 79%
    04:00 +17°C° 0 mm 2 mps 752 mmHg 78%
    05:00 +17°C° 0 mm 2 mps 752 mmHg 76%
    06:00 +18°C° 0 mm 3 mps 752 mmHg 75%
    07:00 +20°C° 0 mm 3 mps 752 mmHg 69%
    08:00 +22°C° 0 mm 3 mps 752 mmHg 64%
    09:00 +25°C° 0 mm 4 mps 753 mmHg 59%
    10:00 +25°C° 0.5 mm 4 mps 752 mmHg 60%
    11:00 +25°C° 0.5 mm 4 mps 752 mmHg 60%
    12:00 +26°C° 0.5 mm 4 mps 752 mmHg 61%
    13:00 +26°C° 1 mm 4 mps 752 mmHg 61%
    14:00 +25°C° 1 mm 4 mps 752 mmHg 62%
    15:00 +25°C° 1 mm 4 mps 752 mmHg 62%
    16:00 +25°C° 0.3 mm 4 mps 752 mmHg 63%
    17:00 +23°C° 0.3 mm 4 mps 753 mmHg 64%
    18:00 +22°C° 0.3 mm 3 mps 753 mmHg 64%
    19:00 +21°C° 0 mm 3 mps 753 mmHg 69%
    20:00 +19°C° 0 mm 3 mps 753 mmHg 73%
    21:00 +17°C° 0 mm 2 mps 754 mmHg 78%
    22:00 +16°C° 0 mm 2 mps 754 mmHg 80%
    23:00 +15°C° 0 mm 2 mps 754 mmHg 83%

    Day after tomorrow, 18 July, Wednesday

    Time Temperature Precipitation Wind Pressure Humidity
    00:00 +15°C° 0 mm 1 mps 754 mmHg 86%
    01:00 +14°C° 0 mm 2 mps 754 mmHg 87%
    02:00 +14°C° 0 mm 2 mps 754 mmHg 88%
    03:00 +13°C° 0 mm 2 mps 754 mmHg 89%
    04:00 +14°C° 0 mm 2 mps 754 mmHg 86%
    05:00 +15°C° 0 mm 2 mps 754 mmHg 83%
    06:00 +16°C° 0 mm 2 mps 754 mmHg 80%
    07:00 +18°C° 0 mm 2 mps 754 mmHg 74%
    08:00 +20°C° 0 mm 2 mps 755 mmHg 67%
    09:00 +21°C° 0 mm 2 mps 755 mmHg 60%
    10:00 +24°C° 0 mm 2 mps 755 mmHg 55%
    11:00 +25°C° 0 mm 1 mps 755 mmHg 51%
    12:00 +26°C° 0 mm 1 mps 754 mmHg 47%
    13:00 +26°C° 0 mm 1 mps 754 mmHg 47%
    14:00 +26°C° 0 mm 1 mps 754 mmHg 47%
    15:00 +26°C° 0 mm 1 mps 754 mmHg 48%
    16:00 +25°C° 0 mm 1 mps 754 mmHg 52%
    17:00 +25°C° 0 mm 2 mps 754 mmHg 56%
    18:00 +24°C° 0 mm 2 mps 754 mmHg 60%
    19:00 +23°C° 0 mm 2 mps 754 mmHg 62%
    20:00 +21°C° 0 mm 2 mps 755 mmHg 64%
    21:00 +20°C° 0 mm 2 mps 755 mmHg 66%
    22:00 +19°C° 0 mm 2 mps 755 mmHg 66%
    23:00 +19°C° 0 mm 2 mps 755 mmHg 67%

    19 July, Thursday

    Time Temperature Precipitation Wind Pressure Humidity
    00:00 +19°C° 0 mm 2 mps 755 mmHg 67%
    01:00 +19°C° 0 mm 1 mps 755 mmHg 67%
    02:00 +19°C° 0 mm 1 mps 755 mmHg 68%
    03:00 +19°C° 0 mm 1 mps 754 mmHg 68%
    04:00 +19°C° 0 mm 1 mps 754 mmHg 69%
    05:00 +20°C° 0 mm 1 mps 754 mmHg 69%
    06:00 +20°C° 0 mm 1 mps 754 mmHg 69%
    07:00 +21°C° 0 mm 1 mps 754 mmHg 65%
    08:00 +23°C° 0 mm 2 mps 754 mmHg 61%
    09:00 +24°C° 0 mm 2 mps 754 mmHg 57%
    10:00 +25°C° 0 mm 2 mps 754 mmHg 53%
    11:00 +26°C° 0 mm 2 mps 754 mmHg 49%
    12:00 +26°C° 0 mm 2 mps 754 mmHg 46%
    13:00 +26°C° 0 mm 2 mps 754 mmHg 46%
    14:00 +26°C° 0 mm 2 mps 754 mmHg 47%
    15:00 +26°C° 0 mm 2 mps 754 mmHg 47%
    16:00 +26°C° 0 mm 2 mps 753 mmHg 50%
    17:00 +25°C° 0 mm 2 mps 753 mmHg 54%
    18:00 +25°C° 0 mm 2 mps 753 mmHg 57%
    19:00 +23°C° 0 mm 2 mps 753 mmHg 59%
    20:00 +21°C° 0 mm 2 mps 753 mmHg 60%
    21:00 +20°C° 0 mm 2 mps 753 mmHg 62%
    22:00 +19°C° 0 mm 2 mps 753 mmHg 63%
    23:00 +18°C° 0 mm 2 mps 753 mmHg 64%

    20 July, Friday

    Time Temperature Precipitation Wind Pressure Humidity
    00:00 +18°C° 0 mm 2 mps 753 mmHg 66%
    01:00 +18°C° 0 mm 2 mps 752 mmHg 66%
    02:00 +17°C° 0 mm 2 mps 752 mmHg 67%
    03:00 +17°C° 0 mm 2 mps 752 mmHg 67%
    04:00 +18°C° 0 mm 2 mps 752 mmHg 68%
    05:00 +18°C° 0 mm 2 mps 751 mmHg 68%
    06:00 +19°C° 0 mm 2 mps 751 mmHg 68%
    07:00 +21°C° 0 mm 2 mps 751 mmHg 64%
    08:00 +22°C° 0 mm 3 mps 751 mmHg 60%
    09:00 +25°C° 0 mm 3 mps 751 mmHg 56%
    10:00 +26°C° 0 mm 3 mps 751 mmHg 52%
    11:00 +27°C° 0 mm 3 mps 751 mmHg 49%
    12:00 +28°C° 0 mm 2 mps 751 mmHg 46%
    13:00 +27°C° 0.2 mm 2 mps 750 mmHg 50%
    14:00 +27°C° 0.2 mm 2 mps 750 mmHg 54%
    15:00 +26°C° 0.2 mm 3 mps 750 mmHg 58%
    16:00 +25°C° 0.4 mm 2 mps 750 mmHg 61%
    17:00 +24°C° 0.4 mm 2 mps 750 mmHg 64%
    18:00 +23°C° 0.4 mm 2 mps 750 mmHg 67%
    19:00 +21°C° 0.2 mm 2 mps 750 mmHg 70%
    20:00 +20°C° 0.2 mm 2 mps 750 mmHg 72%
    21:00 +19°C° 0.2 mm 3 mps 751 mmHg 74%
    22:00 +18°C° 0.3 mm 2 mps 751 mmHg 77%
    23:00 +17°C° 0.3 mm 2 mps 751 mmHg 79%

    21 July, Saturday

    Time Temperature Precipitation Wind Pressure Humidity
    00:00 +16°C° 0.3 mm 2 mps 751 mmHg 82%
    01:00 +16°C° 0.2 mm 2 mps 750 mmHg 83%
    02:00 +15°C° 0.2 mm 2 mps 750 mmHg 85%
    03:00 +15°C° 0.2 mm 2 mps 750 mmHg 86%
    04:00 +15°C° 0 mm 2 mps 750 mmHg 84%
    05:00 +16°C° 0 mm 2 mps 751 mmHg 81%
    06:00 +16°C° 0 mm 2 mps 751 mmHg 79%
    07:00 +17°C° 0 mm 2 mps 751 mmHg 76%
    08:00 +18°C° 0 mm 2 mps 751 mmHg 73%
    09:00 +19°C° 0 mm 2 mps 751 mmHg 69%
    10:00 +20°C° 0.2 mm 3 mps 751 mmHg 70%
    11:00 +20°C° 0.2 mm 3 mps 751 mmHg 70%
    12:00 +21°C° 0.2 mm 3 mps 752 mmHg 70%
    13:00 +20°C° 0.4 mm 3 mps 752 mmHg 72%
    14:00 +20°C° 0.4 mm 3 mps 752 mmHg 73%
    15:00 +20°C° 0.4 mm 4 mps 752 mmHg 74%
    16:00 +20°C° 0.4 mm 3 mps 752 mmHg 77%
    17:00 +19°C° 0.4 mm 3 mps 752 mmHg 80%
    18:00 +19°C° 0.4 mm 3 mps 752 mmHg 83%
    19:00 +18°C° 0.2 mm 3 mps 753 mmHg 86%
    20:00 +17°C° 0.2 mm 2 mps 753 mmHg 89%
    21:00 +16°C° 0.2 mm 2 mps 753 mmHg 92%
    22:00 +16°C° 0.1 mm 2 mps 753 mmHg 93%
    23:00 +15°C° 0.1 mm 2 mps 753 mmHg 94%
    Show more